Time,TemperatureF,DewpointF,PressureIn,WindDirection,WindDirectionDegrees,WindSpeedMPH,WindSpeedGustMPH,Humidity,HourlyPrecipIn,Conditions,Clouds,dailyrainin,SoftwareType,DateUTC
2013-10-16 00:00:00,54.9,21.6,30.11,SE,144,0.0,0.0,27,0.00,,,0.00,WeatherTracker,2013-10-16 07:00:00,
2013-10-16 00:15:00,53.6,22.9,30.11,SE,144,0.0,0.0,30,0.00,,,0.00,WeatherTracker,2013-10-16 07:15:00,
2013-10-16 00:30:00,52.9,23.1,30.12,SE,143,0.0,0.0,31,0.00,,,0.00,WeatherTracker,2013-10-16 07:30:00,
2013-10-16 00:45:00,51.9,24.4,30.12,SE,144,0.0,0.0,34,0.00,,,0.00,WeatherTracker,2013-10-16 07:45:00,
2013-10-16 01:00:00,51.8,22.1,30.12,SE,144,0.0,0.0,31,0.00,,,0.00,WeatherTracker,2013-10-16 08:00:00,
2013-10-16 01:15:00,52.4,21.1,30.13,South,188,0.0,0.0,29,0.00,,,0.00,WeatherTracker,2013-10-16 08:15:00,
2013-10-16 01:30:00,52.5,20.4,30.13,WNW,288,0.0,0.0,28,0.00,,,0.00,WeatherTracker,2013-10-16 08:30:00,
2013-10-16 01:45:00,52.4,21.9,30.13,SSW,197,0.0,0.0,30,0.00,,,0.00,WeatherTracker,2013-10-16 08:45:00,
2013-10-16 02:00:00,53.7,21.4,30.12,WSW,243,0.0,0.0,28,0.00,,,0.00,WeatherTracker,2013-10-16 09:00:00,
2013-10-16 02:15:00,54.3,21.9,30.13,West,270,0.0,0.0,28,0.00,,,0.00,WeatherTracker,2013-10-16 09:15:00,
2013-10-16 02:30:00,53.5,22.0,30.13,West,270,0.0,0.0,29,0.00,,,0.00,WeatherTracker,2013-10-16 09:30:00,
2013-10-16 02:45:00,52.9,21.5,30.13,WNW,292,0.0,0.0,29,0.00,,,0.00,WeatherTracker,2013-10-16 09:45:00,
2013-10-16 03:00:00,53.1,21.7,30.13,West,280,0.0,0.0,29,0.00,,,0.00,WeatherTracker,2013-10-16 10:00:00,
2013-10-16 03:15:00,52.7,20.5,30.13,West,279,0.0,0.0,28,0.00,,,0.00,WeatherTracker,2013-10-16 10:15:00,
2013-10-16 03:30:00,52.0,19.9,30.13,WSW,253,0.0,0.0,28,0.00,,,0.00,WeatherTracker,2013-10-16 10:30:00,
2013-10-16 03:45:00,51.2,20.0,30.13,WSW,253,0.0,0.0,29,0.00,,,0.00,WeatherTracker,2013-10-16 10:45:00,
2013-10-16 04:00:00,51.3,20.9,30.13,WSW,254,0.0,0.0,30,0.00,,,0.00,WeatherTracker,2013-10-16 11:00:00,
2013-10-16 04:15:00,49.6,21.0,30.14,WSW,245,0.0,0.0,32,0.00,,,0.00,WeatherTracker,2013-10-16 11:15:00,
2013-10-16 04:30:00,49.6,20.2,30.14,WSW,257,0.0,0.0,31,0.00,,,0.00,WeatherTracker,2013-10-16 11:30:00,
2013-10-16 04:45:00,49.0,20.4,30.15,WSW,257,0.0,0.0,32,0.00,,,0.00,WeatherTracker,2013-10-16 11:45:00,
2013-10-16 05:00:00,48.4,21.3,30.15,WSW,257,0.0,0.0,34,0.00,,,0.00,WeatherTracker,2013-10-16 12:00:00,
2013-10-16 05:15:00,49.0,22.6,30.15,WSW,257,0.0,0.0,35,0.00,,,0.00,WeatherTracker,2013-10-16 12:15:00,
2013-10-16 05:30:00,49.5,23.0,30.16,WSW,257,0.0,0.0,35,0.00,,,0.00,WeatherTracker,2013-10-16 12:30:00,
2013-10-16 05:45:00,49.2,22.0,30.16,WSW,257,0.0,0.0,34,0.00,,,0.00,WeatherTracker,2013-10-16 12:45:00,
2013-10-16 06:00:00,47.4,23.7,30.18,WSW,257,0.0,0.0,39,0.00,,,0.00,WeatherTracker,2013-10-16 13:00:00,
2013-10-16 06:15:00,47.0,22.1,30.19,WSW,257,0.0,0.0,37,0.00,,,0.00,WeatherTracker,2013-10-16 13:15:00,
2013-10-16 06:30:00,46.0,22.4,30.20,WSW,257,0.0,0.0,39,0.00,,,0.00,WeatherTracker,2013-10-16 13:30:00,
2013-10-16 06:45:00,45.7,22.2,30.20,WSW,257,0.0,0.0,39,0.00,,,0.00,WeatherTracker,2013-10-16 13:45:00,
2013-10-16 07:00:00,45.8,20.4,30.20,WSW,257,0.0,0.0,36,0.00,,,0.00,WeatherTracker,2013-10-16 14:00:00,
2013-10-16 07:15:00,44.9,20.8,30.22,WSW,257,0.0,0.0,38,0.00,,,0.00,WeatherTracker,2013-10-16 14:15:00,
2013-10-16 07:30:00,44.8,22.0,30.23,SSW,209,0.0,0.0,40,0.00,,,0.00,WeatherTracker,2013-10-16 14:30:00,
2013-10-16 07:45:00,47.0,22.1,30.24,WNW,301,0.0,0.0,37,0.00,,,0.00,WeatherTracker,2013-10-16 14:45:00,
2013-10-16 08:00:00,48.5,22.1,30.24,WNW,301,0.0,0.0,35,0.00,,,0.00,WeatherTracker,2013-10-16 15:00:00,
2013-10-16 08:15:00,50.5,23.2,30.25,WNW,301,0.0,0.0,34,0.00,,,0.00,WeatherTracker,2013-10-16 15:15:00,
2013-10-16 08:30:00,53.2,23.4,30.24,WNW,302,0.0,0.0,31,0.00,,,0.00,WeatherTracker,2013-10-16 15:30:00,
2013-10-16 08:45:00,56.9,25.8,30.24,NW,313,0.0,0.0,30,0.00,,,0.00,WeatherTracker,2013-10-16 15:45:00,
2013-10-16 09:00:00,59.0,23.2,30.23,West,272,0.0,0.0,25,0.00,,,0.00,WeatherTracker,2013-10-16 16:00:00,
2013-10-16 09:15:00,60.2,25.2,30.24,West,272,0.0,0.0,26,0.00,,,0.00,WeatherTracker,2013-10-16 16:15:00,
2013-10-16 09:30:00,62.5,25.2,30.24,West,272,0.0,0.0,24,0.00,,,0.00,WeatherTracker,2013-10-16 16:30:00,
2013-10-16 09:45:00,63.3,23.8,30.24,South,188,0.0,0.0,22,0.00,,,0.00,WeatherTracker,2013-10-16 16:45:00,
2013-10-16 10:00:00,64.3,23.5,30.23,South,188,0.0,0.0,21,0.00,,,0.00,WeatherTracker,2013-10-16 17:00:00,
2013-10-16 10:15:00,65.8,23.6,30.23,SSW,210,0.0,0.0,20,0.00,,,0.00,WeatherTracker,2013-10-16 17:15:00,
2013-10-16 10:30:00,67.7,24.0,30.23,South,186,0.0,0.0,19,0.00,,,0.00,WeatherTracker,2013-10-16 17:30:00,
2013-10-16 10:45:00,67.4,22.4,30.23,East,98,0.0,0.0,18,0.00,,,0.00,WeatherTracker,2013-10-16 17:45:00,
2013-10-16 11:00:00,67.4,22.4,30.22,ESE,103,0.0,0.0,18,0.00,,,0.00,WeatherTracker,2013-10-16 18:00:00,
2013-10-16 11:15:00,67.5,22.5,30.22,East,92,0.0,0.0,18,0.00,,,0.00,WeatherTracker,2013-10-16 18:15:00,
2013-10-16 11:30:00,68.3,23.2,30.21,South,182,0.0,0.0,18,0.00,,,0.00,WeatherTracker,2013-10-16 18:30:00,
2013-10-16 11:45:00,68.5,20.5,30.20,ESE,123,0.0,0.0,16,0.00,,,0.00,WeatherTracker,2013-10-16 18:45:00,
2013-10-16 12:00:00,68.6,22.1,30.20,ESE,116,0.0,0.0,17,0.00,,,0.00,WeatherTracker,2013-10-16 19:00:00,
2013-10-16 12:15:00,69.9,21.7,30.20,SE,140,0.0,0.0,16,0.00,,,0.00,WeatherTracker,2013-10-16 19:15:00,
2013-10-16 12:30:00,70.7,22.3,30.19,East,94,0.0,0.0,16,0.00,,,0.00,WeatherTracker,2013-10-16 19:30:00,
2013-10-16 12:45:00,71.3,22.8,30.18,SSW,196,0.0,0.0,16,0.00,,,0.00,WeatherTracker,2013-10-16 19:45:00,
2013-10-16 13:00:00,71.1,22.6,30.17,SSW,209,0.0,0.0,16,0.00,,,0.00,WeatherTracker,2013-10-16 20:00:00,
2013-10-16 13:15:00,71.6,21.5,30.16,SSE,158,0.0,0.0,15,0.00,,,0.00,WeatherTracker,2013-10-16 20:15:00,
2013-10-16 13:30:00,71.5,21.4,30.15,SE,126,0.0,0.0,15,0.00,,,0.00,WeatherTracker,2013-10-16 20:30:00,
2013-10-16 13:45:00,71.2,21.2,30.15,East,98,5.0,0.0,15,0.00,,,0.00,WeatherTracker,2013-10-16 20:45:00,
2013-10-16 14:00:00,71.8,20.0,30.14,SE,131,1.0,0.0,14,0.00,,,0.00,WeatherTracker,2013-10-16 21:00:00,
2013-10-16 14:15:00,71.9,21.7,30.14,SSE,166,0.0,0.0,15,0.00,,,0.00,WeatherTracker,2013-10-16 21:15:00,
2013-10-16 14:30:00,72.6,20.7,30.12,South,177,0.0,0.0,14,0.00,,,0.00,WeatherTracker,2013-10-16 21:30:00,
2013-10-16 14:45:00,72.2,20.4,30.13,ENE,77,0.0,0.0,14,0.00,,,0.00,WeatherTracker,2013-10-16 21:45:00,
2013-10-16 15:00:00,73.0,21.0,30.12,SE,141,0.0,0.0,14,0.00,,,0.00,WeatherTracker,2013-10-16 22:00:00,
2013-10-16 15:15:00,72.6,20.7,30.12,ESE,121,3.0,0.0,14,0.00,,,0.00,WeatherTracker,2013-10-16 22:15:00,
2013-10-16 15:30:00,72.6,20.7,30.11,SE,130,0.0,0.0,14,0.00,,,0.00,WeatherTracker,2013-10-16 22:30:00,
2013-10-16 15:45:00,73.5,19.6,30.11,East,80,0.0,0.0,13,0.00,,,0.00,WeatherTracker,2013-10-16 22:45:00,
2013-10-16 16:00:00,72.9,19.2,30.10,ESE,107,0.0,0.0,13,0.00,,,0.00,WeatherTracker,2013-10-16 23:00:00,
2013-10-16 16:15:00,73.0,19.3,30.11,ESE,105,0.0,0.0,13,0.00,,,0.00,WeatherTracker,2013-10-16 23:15:00,
2013-10-16 16:30:00,72.7,19.0,30.11,SE,136,0.0,0.0,13,0.00,,,0.00,WeatherTracker,2013-10-16 23:30:00,
2013-10-16 16:45:00,73.2,21.2,30.11,ESE,113,0.0,0.0,14,0.00,,,0.00,WeatherTracker,2013-10-16 23:45:00,
2013-10-16 17:00:00,73.0,19.3,30.11,ENE,65,1.0,0.0,13,0.00,,,0.00,WeatherTracker,2013-10-17 00:00:00,
2013-10-16 17:15:00,72.7,19.0,30.10,ENE,66,0.0,0.0,13,0.00,,,0.00,WeatherTracker,2013-10-17 00:15:00,
2013-10-16 17:30:00,72.2,18.6,30.10,East,88,0.0,0.0,13,0.00,,,0.00,WeatherTracker,2013-10-17 00:30:00,
2013-10-16 17:45:00,71.5,19.8,30.10,ENE,74,0.0,0.0,14,0.00,,,0.00,WeatherTracker,2013-10-17 00:45:00,
2013-10-16 18:00:00,70.8,19.3,30.10,East,89,0.0,0.0,14,0.00,,,0.00,WeatherTracker,2013-10-17 01:00:00,
2013-10-16 18:15:00,69.6,21.4,30.11,East,89,0.0,0.0,16,0.00,,,0.00,WeatherTracker,2013-10-17 01:15:00,
2013-10-16 18:30:00,68.3,21.8,30.11,East,89,0.0,0.0,17,0.00,,,0.00,WeatherTracker,2013-10-17 01:30:00,
2013-10-16 18:45:00,66.5,23.0,30.12,East,89,0.0,0.0,19,0.00,,,0.00,WeatherTracker,2013-10-17 01:45:00,
2013-10-16 19:00:00,64.3,22.4,30.13,East,89,0.0,0.0,20,0.00,,,0.00,WeatherTracker,2013-10-17 02:00:00,
2013-10-16 19:15:00,63.0,21.3,30.12,East,89,0.0,0.0,20,0.00,,,0.00,WeatherTracker,2013-10-17 02:15:00,
2013-10-16 19:30:00,62.5,22.0,30.13,East,89,0.0,0.0,21,0.00,,,0.00,WeatherTracker,2013-10-17 02:30:00,
2013-10-16 19:45:00,61.3,22.1,30.14,East,89,0.0,0.0,22,0.00,,,0.00,WeatherTracker,2013-10-17 02:45:00,
2013-10-16 20:00:00,59.9,24.9,30.14,East,90,0.0,0.0,26,0.00,,,0.00,WeatherTracker,2013-10-17 03:00:00,
2013-10-16 20:15:00,59.1,24.3,30.12,East,92,0.0,0.0,26,0.00,,,0.00,WeatherTracker,2013-10-17 03:15:00,
2013-10-16 20:30:00,59.2,20.4,30.12,East,92,0.0,0.0,22,0.00,,,0.00,WeatherTracker,2013-10-17 03:30:00,
2013-10-16 20:45:00,59.0,21.3,30.13,East,91,0.0,0.0,23,0.00,,,0.00,WeatherTracker,2013-10-17 03:45:00,
2013-10-16 21:00:00,58.3,17.4,30.14,East,97,0.0,0.0,20,0.00,,,0.00,WeatherTracker,2013-10-17 04:00:00,
2013-10-16 21:15:00,58.0,18.3,30.12,East,96,0.0,0.0,21,0.00,,,0.00,WeatherTracker,2013-10-17 04:15:00,
2013-10-16 21:30:00,57.4,18.9,30.12,East,96,0.0,0.0,22,0.00,,,0.00,WeatherTracker,2013-10-17 04:30:00,
2013-10-16 21:45:00,56.8,19.4,30.13,East,96,0.0,0.0,23,0.00,,,0.00,WeatherTracker,2013-10-17 04:45:00,
2013-10-16 22:00:00,56.2,18.9,30.12,East,96,0.0,0.0,23,0.00,,,0.00,WeatherTracker,2013-10-17 05:00:00,
2013-10-16 22:15:00,56.4,19.1,30.12,East,96,0.0,0.0,23,0.00,,,0.00,WeatherTracker,2013-10-17 05:15:00,
2013-10-16 22:30:00,55.4,21.1,30.12,East,96,0.0,0.0,26,0.00,,,0.00,WeatherTracker,2013-10-17 05:30:00,
2013-10-16 22:45:00,54.8,20.6,30.12,East,96,0.0,0.0,26,0.00,,,0.00,WeatherTracker,2013-10-17 05:45:00,
2013-10-16 23:00:00,53.9,20.7,30.12,East,96,0.0,0.0,27,0.00,,,0.00,WeatherTracker,2013-10-17 06:00:00,
2013-10-16 23:15:00,53.2,18.3,30.12,East,96,0.0,0.0,25,0.00,,,0.00,WeatherTracker,2013-10-17 06:15:00,
2013-10-16 23:30:00,53.1,20.0,30.12,East,96,0.0,0.0,27,0.00,,,0.00,WeatherTracker,2013-10-17 06:30:00,
2013-10-16 23:45:00,52.1,21.6,30.12,East,96,0.0,0.0,30,0.00,,,0.00,WeatherTracker,2013-10-17 06:45:00,